Time,TemperatureF,DewpointF,PressureIn,WindDirection,WindDirectionDegrees,WindSpeedMPH,WindSpeedGustMPH,Humidity,HourlyPrecipIn,Conditions,Clouds,dailyrainin,SolarRadiationWatts/m^2,SoftwareType,DateUTC
2015-04-26 00:05:00,41.2,27.5,29.85,North,0,8.1,11.0,58,0.00,,,0.00,0.0,meteobridge,2015-04-26 04:05:00,
2015-04-26 00:10:00,41.0,27.3,29.85,North,355,4.9,8.0,58,0.00,,,0.00,0.0,meteobridge,2015-04-26 04:10:00,
2015-04-26 00:15:00,40.8,27.7,29.85,North,5,8.1,13.0,59,0.00,,,0.00,0.0,meteobridge,2015-04-26 04:15:00,
2015-04-26 00:20:00,40.8,27.7,29.85,NNE,25,6.0,11.0,59,0.00,,,0.00,0.0,meteobridge,2015-04-26 04:20:00,
2015-04-26 00:25:00,40.6,27.5,29.85,NNE,14,2.9,9.0,59,0.00,,,0.00,0.0,meteobridge,2015-04-26 04:25:00,
2015-04-26 00:30:00,40.5,27.7,29.85,North,5,6.0,11.0,60,0.00,,,0.00,0.0,meteobridge,2015-04-26 04:30:00,
2015-04-26 00:35:00,40.5,27.7,29.85,North,5,6.9,7.0,60,0.00,,,0.00,0.0,meteobridge,2015-04-26 04:35:00,
2015-04-26 00:40:00,40.3,27.9,29.85,NNE,16,6.9,7.0,61,0.00,,,0.00,0.0,meteobridge,2015-04-26 04:40:00,
2015-04-26 00:50:00,40.1,27.7,29.85,North,351,6.9,7.0,61,0.00,,,0.00,0.0,meteobridge,2015-04-26 04:50:00,
2015-04-26 00:55:00,39.9,27.5,29.86,North,350,4.0,8.0,61,0.00,,,0.00,0.0,meteobridge,2015-04-26 04:55:00,
2015-04-26 01:00:00,39.7,27.3,29.86,North,5,2.9,5.0,61,0.00,,,0.00,0.0,meteobridge,2015-04-26 05:00:00,
2015-04-26 01:05:00,39.6,27.1,29.86,North,355,4.9,8.0,61,0.00,,,0.00,0.0,meteobridge,2015-04-26 05:05:00,
2015-04-26 01:10:00,39.6,27.1,29.86,NNW,344,2.0,6.0,61,0.00,,,0.00,0.0,meteobridge,2015-04-26 05:10:00,
2015-04-26 01:15:00,39.4,27.1,29.86,NNE,23,4.0,8.0,61,0.00,,,0.00,0.0,meteobridge,2015-04-26 05:15:00,
2015-04-26 01:20:00,39.0,27.1,29.86,North,0,2.9,8.0,62,0.00,,,0.00,0.0,meteobridge,2015-04-26 05:20:00,
2015-04-26 01:25:00,38.8,27.0,29.86,North,0,4.0,8.0,62,0.00,,,0.00,0.0,meteobridge,2015-04-26 05:25:00,
2015-04-26 01:30:00,38.8,26.6,29.86,North,0,2.9,12.0,61,0.00,,,0.00,0.0,meteobridge,2015-04-26 05:30:00,
2015-04-26 01:35:00,38.8,26.6,29.86,NNW,346,4.9,7.0,61,0.00,,,0.00,0.0,meteobridge,2015-04-26 05:35:00,
2015-04-26 01:40:00,38.8,27.0,29.86,North,9,2.0,4.0,62,0.00,,,0.00,0.0,meteobridge,2015-04-26 05:40:00,
2015-04-26 01:45:00,38.5,26.6,29.86,North,5,2.9,6.0,62,0.00,,,0.00,0.0,meteobridge,2015-04-26 05:45:00,
2015-04-26 01:50:00,38.5,26.6,29.86,North,355,4.0,7.0,62,0.00,,,0.00,0.0,meteobridge,2015-04-26 05:50:00,
2015-04-26 01:55:00,38.3,26.8,29.86,NNE,13,2.0,5.0,63,0.00,,,0.00,0.0,meteobridge,2015-04-26 05:55:00,
2015-04-26 02:00:00,38.1,26.6,29.86,NNE,12,0.9,5.0,63,0.00,,,0.00,0.0,meteobridge,2015-04-26 06:00:00,
2015-04-26 02:05:00,37.9,26.8,29.86,NNE,12,0.0,1.0,64,0.00,,,0.00,0.0,meteobridge,2015-04-26 06:05:00,
2015-04-26 02:10:00,37.8,26.6,29.86,NNE,12,2.0,3.0,64,0.00,,,0.00,0.0,meteobridge,2015-04-26 06:10:00,
2015-04-26 02:15:00,37.4,26.8,29.86,NNW,329,0.0,2.0,65,0.00,,,0.00,0.0,meteobridge,2015-04-26 06:15:00,
2015-04-26 02:20:00,37.0,26.8,29.86,North,5,0.9,4.0,66,0.00,,,0.00,0.0,meteobridge,2015-04-26 06:20:00,
2015-04-26 02:25:00,36.7,26.4,29.86,North,5,2.9,3.0,66,0.00,,,0.00,0.0,meteobridge,2015-04-26 06:25:00,
2015-04-26 02:30:00,36.3,26.4,29.86,North,5,0.0,2.0,67,0.00,,,0.00,0.0,meteobridge,2015-04-26 06:30:00,
2015-04-26 02:35:00,36.1,26.6,29.86,North,5,0.0,2.0,68,0.00,,,0.00,0.0,meteobridge,2015-04-26 06:35:00,
2015-04-26 02:40:00,36.0,26.8,29.86,North,5,0.9,2.0,69,0.00,,,0.00,0.0,meteobridge,2015-04-26 06:40:00,
2015-04-26 02:45:00,35.8,26.6,29.86,North,5,0.0,2.0,69,0.00,,,0.00,0.0,meteobridge,2015-04-26 06:45:00,
2015-04-26 02:50:00,35.4,26.6,29.86,North,5,2.0,3.0,70,0.00,,,0.00,0.0,meteobridge,2015-04-26 06:50:00,
2015-04-26 02:55:00,35.2,26.4,29.86,North,5,0.0,4.0,70,0.00,,,0.00,0.0,meteobridge,2015-04-26 06:55:00,
2015-04-26 03:00:00,35.1,26.6,29.86,North,5,0.0,2.0,71,0.00,,,0.00,0.0,meteobridge,2015-04-26 07:00:00,
2015-04-26 03:05:00,34.9,26.4,29.86,North,5,0.9,3.0,71,0.00,,,0.00,0.0,meteobridge,2015-04-26 07:05:00,
2015-04-26 03:10:00,35.1,26.6,29.86,North,5,2.9,4.0,71,0.00,,,0.00,0.0,meteobridge,2015-04-26 07:10:00,
2015-04-26 03:16:00,35.1,26.6,29.86,North,5,0.0,3.0,71,0.00,,,0.00,0.0,meteobridge,2015-04-26 07:16:00,
2015-04-26 03:21:00,34.9,26.4,29.86,North,5,2.0,2.0,71,0.00,,,0.00,0.0,meteobridge,2015-04-26 07:21:00,
2015-04-26 03:26:00,34.7,26.2,29.86,North,5,2.0,2.0,71,0.00,,,0.00,0.0,meteobridge,2015-04-26 07:26:00,
2015-04-26 03:31:00,34.5,26.4,29.86,North,5,0.0,2.0,72,0.00,,,0.00,0.0,meteobridge,2015-04-26 07:31:00,
2015-04-26 03:36:00,34.3,26.2,29.86,North,0,0.9,5.0,72,0.00,,,0.00,0.0,meteobridge,2015-04-26 07:36:00,
2015-04-26 03:41:00,34.2,26.4,29.86,North,0,0.0,1.0,73,0.00,,,0.00,0.0,meteobridge,2015-04-26 07:41:00,
2015-04-26 03:46:00,34.0,26.6,29.87,North,0,0.0,3.0,74,0.00,,,0.00,0.0,meteobridge,2015-04-26 07:46:00,
2015-04-26 03:51:00,34.0,26.6,29.87,North,0,0.9,4.0,74,0.00,,,0.00,0.0,meteobridge,2015-04-26 07:51:00,
2015-04-26 03:56:00,34.0,26.6,29.87,North,0,0.9,3.0,74,0.00,,,0.00,0.0,meteobridge,2015-04-26 07:56:00,
2015-04-26 04:01:00,34.0,26.6,29.87,NNW,342,0.0,4.0,74,0.00,,,0.00,0.0,meteobridge,2015-04-26 08:01:00,
2015-04-26 04:06:00,34.0,26.6,29.87,North,355,0.9,3.0,74,0.00,,,0.00,0.0,meteobridge,2015-04-26 08:06:00,
2015-04-26 04:11:00,34.0,27.0,29.87,North,350,0.9,4.0,75,0.00,,,0.00,0.0,meteobridge,2015-04-26 08:11:00,
2015-04-26 04:16:00,34.0,27.0,29.87,North,350,0.9,3.0,75,0.00,,,0.00,0.0,meteobridge,2015-04-26 08:16:00,
2015-04-26 04:21:00,34.0,27.0,29.87,North,349,2.0,4.0,75,0.00,,,0.00,0.0,meteobridge,2015-04-26 08:21:00,
2015-04-26 04:26:00,33.8,26.8,29.87,NNW,348,0.0,4.0,75,0.00,,,0.00,0.0,meteobridge,2015-04-26 08:26:00,
2015-04-26 04:31:00,33.8,26.8,29.87,NNW,348,0.9,2.0,75,0.00,,,0.00,0.0,meteobridge,2015-04-26 08:31:00,
2015-04-26 04:36:00,33.8,26.8,29.88,NNW,348,0.0,3.0,75,0.00,,,0.00,0.0,meteobridge,2015-04-26 08:36:00,
2015-04-26 04:41:00,33.6,26.6,29.88,NNE,23,0.9,3.0,75,0.00,,,0.00,0.0,meteobridge,2015-04-26 08:41:00,
2015-04-26 04:46:00,33.6,26.6,29.88,NNE,23,0.0,4.0,75,0.00,,,0.00,0.0,meteobridge,2015-04-26 08:46:00,
2015-04-26 04:51:00,33.4,26.4,29.88,NNE,22,0.0,3.0,75,0.00,,,0.00,0.0,meteobridge,2015-04-26 08:51:00,
2015-04-26 04:56:00,33.3,26.6,29.88,NNE,22,0.9,3.0,76,0.00,,,0.00,0.0,meteobridge,2015-04-26 08:56:00,
2015-04-26 05:01:00,33.3,26.6,29.88,NNE,22,0.0,3.0,76,0.00,,,0.00,0.0,meteobridge,2015-04-26 09:01:00,
2015-04-26 05:07:00,33.1,26.4,29.88,NNE,22,0.0,4.0,76,0.00,,,0.00,0.0,meteobridge,2015-04-26 09:07:00,
2015-04-26 05:12:00,32.9,26.2,29.89,NNW,336,4.0,4.0,76,0.00,,,0.00,0.0,meteobridge,2015-04-26 09:12:00,
2015-04-26 05:17:00,32.9,26.4,29.89,North,355,2.9,5.0,77,0.00,,,0.00,0.0,meteobridge,2015-04-26 09:17:00,
2015-04-26 05:22:00,33.1,26.4,29.89,NNW,348,2.9,4.0,76,0.00,,,0.00,0.0,meteobridge,2015-04-26 09:22:00,
2015-04-26 05:27:00,33.1,26.6,29.89,North,355,0.0,6.0,77,0.00,,,0.00,0.0,meteobridge,2015-04-26 09:27:00,
2015-04-26 05:32:00,33.1,26.4,29.89,North,355,4.0,5.0,76,0.00,,,0.00,0.0,meteobridge,2015-04-26 09:32:00,
2015-04-26 05:37:00,33.1,26.4,29.89,North,355,2.0,6.0,76,0.00,,,0.00,0.0,meteobridge,2015-04-26 09:37:00,
2015-04-26 05:42:00,33.1,26.4,29.89,NW,316,2.9,6.0,76,0.00,,,0.00,0.0,meteobridge,2015-04-26 09:42:00,
2015-04-26 05:47:00,33.3,26.6,29.89,NNW,340,2.0,6.0,76,0.00,,,0.00,0.0,meteobridge,2015-04-26 09:47:00,
2015-04-26 05:52:00,33.3,26.6,29.89,NNW,338,0.0,3.0,76,0.00,,,0.00,0.0,meteobridge,2015-04-26 09:52:00,
2015-04-26 05:57:00,33.1,26.4,29.89,NNW,338,0.9,2.0,76,0.00,,,0.00,0.0,meteobridge,2015-04-26 09:57:00,
2015-04-26 06:02:00,33.1,26.6,29.90,NNW,346,0.0,1.0,77,0.00,,,0.00,0.0,meteobridge,2015-04-26 10:02:00,
2015-04-26 06:07:00,33.1,26.6,29.90,NNW,345,2.0,4.0,77,0.00,,,0.00,0.0,meteobridge,2015-04-26 10:07:00,
2015-04-26 06:12:00,32.9,26.4,29.90,NW,311,0.0,3.0,77,0.00,,,0.00,0.0,meteobridge,2015-04-26 10:12:00,
2015-04-26 06:17:00,32.7,26.2,29.90,WNW,294,0.0,4.0,77,0.00,,,0.00,0.0,meteobridge,2015-04-26 10:17:00,
2015-04-26 06:22:00,32.7,26.2,29.90,NW,321,2.0,4.0,77,0.00,,,0.00,0.0,meteobridge,2015-04-26 10:22:00,
2015-04-26 06:27:00,32.5,26.1,29.90,North,0,0.0,5.0,77,0.00,,,0.00,0.0,meteobridge,2015-04-26 10:27:00,
2015-04-26 06:32:00,32.5,26.1,29.90,NW,317,2.0,3.0,77,0.00,,,0.00,0.0,meteobridge,2015-04-26 10:32:00,
2015-04-26 06:37:00,32.5,26.1,29.90,NNE,24,2.0,4.0,77,0.00,,,0.00,5.0,meteobridge,2015-04-26 10:37:00,
2015-04-26 06:42:00,32.7,26.2,29.91,WNW,300,2.9,4.0,77,0.00,,,0.00,9.0,meteobridge,2015-04-26 10:42:00,
2015-04-26 06:47:00,32.7,26.2,29.91,WNW,300,0.9,3.0,77,0.00,,,0.00,12.0,meteobridge,2015-04-26 10:47:00,
2015-04-26 06:52:00,32.7,26.2,29.91,NNW,336,2.0,3.0,77,0.00,,,0.00,14.0,meteobridge,2015-04-26 10:52:00,
2015-04-26 06:57:00,32.7,26.1,29.91,WNW,290,0.9,5.0,76,0.00,,,0.00,19.0,meteobridge,2015-04-26 10:57:00,
2015-04-26 07:02:00,33.1,26.6,29.92,WNW,297,2.9,3.0,77,0.00,,,0.00,23.0,meteobridge,2015-04-26 11:02:00,
2015-04-26 07:07:00,33.1,26.4,29.92,NNW,333,2.0,3.0,76,0.00,,,0.00,25.0,meteobridge,2015-04-26 11:07:00,
2015-04-26 07:13:00,33.4,26.8,29.92,WNW,298,2.0,3.0,76,0.00,,,0.00,30.0,meteobridge,2015-04-26 11:13:00,
2015-04-26 07:18:00,33.8,26.8,29.92,WNW,302,0.0,5.0,75,0.00,,,0.00,46.0,meteobridge,2015-04-26 11:18:00,
2015-04-26 07:23:00,34.2,27.1,29.93,NNW,344,2.0,3.0,75,0.00,,,0.00,49.0,meteobridge,2015-04-26 11:23:00,
2015-04-26 07:28:00,34.3,27.0,29.93,NNW,327,2.9,6.0,74,0.00,,,0.00,62.0,meteobridge,2015-04-26 11:28:00,
2015-04-26 07:33:00,34.7,27.3,29.93,NNE,21,4.0,4.0,74,0.00,,,0.00,77.0,meteobridge,2015-04-26 11:33:00,
2015-04-26 07:38:00,35.1,27.3,29.93,North,355,4.0,6.0,73,0.00,,,0.00,132.0,meteobridge,2015-04-26 11:38:00,
2015-04-26 07:43:00,35.8,28.0,29.93,NW,320,2.9,4.0,73,0.00,,,0.00,149.0,meteobridge,2015-04-26 11:43:00,
2015-04-26 07:48:00,36.3,27.9,29.93,West,277,2.9,5.0,71,0.00,,,0.00,165.0,meteobridge,2015-04-26 11:48:00,
2015-04-26 07:53:00,36.7,28.2,29.93,West,277,4.9,5.0,71,0.00,,,0.00,185.0,meteobridge,2015-04-26 11:53:00,
2015-04-26 07:58:00,37.0,27.9,29.93,NW,309,4.9,6.0,69,0.00,,,0.00,206.0,meteobridge,2015-04-26 11:58:00,
2015-04-26 08:03:00,37.6,28.0,29.93,NW,306,2.0,6.0,68,0.00,,,0.00,223.0,meteobridge,2015-04-26 12:03:00,
2015-04-26 08:08:00,38.1,28.6,29.93,NNW,338,0.9,5.0,68,0.00,,,0.00,241.0,meteobridge,2015-04-26 12:08:00,
2015-04-26 08:13:00,38.7,28.6,29.93,North,355,4.0,6.0,67,0.00,,,0.00,258.0,meteobridge,2015-04-26 12:13:00,
2015-04-26 08:18:00,39.2,28.8,29.93,NNW,340,0.9,5.0,66,0.00,,,0.00,274.0,meteobridge,2015-04-26 12:18:00,
2015-04-26 08:23:00,39.6,29.1,29.93,NNW,342,2.0,5.0,66,0.00,,,0.00,288.0,meteobridge,2015-04-26 12:23:00,
2015-04-26 08:28:00,39.9,28.8,29.93,North,349,0.0,7.0,64,0.00,,,0.00,306.0,meteobridge,2015-04-26 12:28:00,
2015-04-26 08:33:00,40.3,29.1,29.93,NW,325,0.9,6.0,64,0.00,,,0.00,323.0,meteobridge,2015-04-26 12:33:00,
2015-04-26 08:38:00,40.6,29.5,29.93,North,5,0.9,8.0,64,0.00,,,0.00,339.0,meteobridge,2015-04-26 12:38:00,
2015-04-26 08:43:00,41.2,29.5,29.93,North,355,4.9,7.0,63,0.00,,,0.00,357.0,meteobridge,2015-04-26 12:43:00,
2015-04-26 08:48:00,41.5,29.5,29.93,NNW,344,2.0,9.0,62,0.00,,,0.00,373.0,meteobridge,2015-04-26 12:48:00,
2015-04-26 08:53:00,41.7,29.3,29.93,North,351,0.9,7.0,61,0.00,,,0.00,390.0,meteobridge,2015-04-26 12:53:00,
2015-04-26 08:58:00,42.1,29.7,29.93,NNE,28,8.9,11.0,61,0.00,,,0.00,406.0,meteobridge,2015-04-26 12:58:00,
2015-04-26 09:03:00,42.4,30.0,29.93,NW,323,2.0,9.0,61,0.00,,,0.00,424.0,meteobridge,2015-04-26 13:03:00,
2015-04-26 09:08:00,43.0,29.7,29.93,North,5,4.0,8.0,59,0.00,,,0.00,438.0,meteobridge,2015-04-26 13:08:00,
2015-04-26 09:18:00,44.2,30.0,29.93,NNE,26,4.0,11.0,57,0.00,,,0.00,471.0,meteobridge,2015-04-26 13:18:00,
2015-04-26 09:23:00,44.6,29.8,29.93,NW,306,6.0,10.0,56,0.00,,,0.00,487.0,meteobridge,2015-04-26 13:23:00,
2015-04-26 09:28:00,45.1,30.4,29.93,NNW,336,6.9,9.0,56,0.00,,,0.00,504.0,meteobridge,2015-04-26 13:28:00,
2015-04-26 09:33:00,45.7,30.4,29.93,NNE,17,4.0,12.0,55,0.00,,,0.00,517.0,meteobridge,2015-04-26 13:33:00,
2015-04-26 09:38:00,45.9,29.7,29.93,NE,40,6.9,10.0,53,0.00,,,0.00,536.0,meteobridge,2015-04-26 13:38:00,
2015-04-26 09:44:00,46.0,29.8,29.93,NNE,17,4.9,11.0,53,0.00,,,0.00,554.0,meteobridge,2015-04-26 13:44:00,
2015-04-26 09:49:00,46.6,30.4,29.93,North,0,6.9,11.0,53,0.00,,,0.00,570.0,meteobridge,2015-04-26 13:49:00,
2015-04-26 09:54:00,46.6,29.5,29.93,North,5,6.9,12.0,51,0.00,,,0.00,584.0,meteobridge,2015-04-26 13:54:00,
2015-04-26 09:59:00,46.9,30.2,29.93,North,5,13.0,13.0,52,0.00,,,0.00,599.0,meteobridge,2015-04-26 13:59:00,
2015-04-26 10:04:00,47.1,30.4,29.93,NE,41,0.0,8.0,52,0.00,,,0.00,610.0,meteobridge,2015-04-26 14:04:00,
2015-04-26 10:09:00,47.8,30.6,29.93,NNW,335,2.9,11.0,51,0.00,,,0.00,626.0,meteobridge,2015-04-26 14:09:00,
2015-04-26 10:14:00,48.0,29.8,29.93,NNE,22,11.0,14.0,49,0.00,,,0.00,642.0,meteobridge,2015-04-26 14:14:00,
2015-04-26 10:19:00,48.0,29.8,29.93,NE,44,6.9,11.0,49,0.00,,,0.00,656.0,meteobridge,2015-04-26 14:19:00,
2015-04-26 10:24:00,48.0,29.8,29.93,North,5,6.9,11.0,49,0.00,,,0.00,668.0,meteobridge,2015-04-26 14:24:00,
2015-04-26 10:29:00,48.6,29.8,29.94,NNE,27,6.0,11.0,48,0.00,,,0.00,680.0,meteobridge,2015-04-26 14:29:00,
2015-04-26 10:34:00,48.7,30.4,29.94,NE,39,8.1,10.0,49,0.00,,,0.00,696.0,meteobridge,2015-04-26 14:34:00,
2015-04-26 10:39:00,49.3,29.3,29.94,North,0,11.0,16.0,46,0.00,,,0.00,708.0,meteobridge,2015-04-26 14:39:00,
2015-04-26 10:44:00,49.3,29.3,29.94,ENE,59,4.9,15.0,46,0.00,,,0.00,715.0,meteobridge,2015-04-26 14:44:00,
2015-04-26 10:49:00,49.5,28.9,29.94,NE,36,2.9,9.0,45,0.00,,,0.00,728.0,meteobridge,2015-04-26 14:49:00,
2015-04-26 10:54:00,49.8,29.8,29.94,North,9,8.9,12.0,46,0.00,,,0.00,751.0,meteobridge,2015-04-26 14:54:00,
2015-04-26 10:59:00,49.8,29.3,29.94,NW,323,6.0,12.0,45,0.00,,,0.00,752.0,meteobridge,2015-04-26 14:59:00,
2015-04-26 11:04:00,50.2,29.1,29.94,NW,325,10.1,14.0,44,0.00,,,0.00,759.0,meteobridge,2015-04-26 15:04:00,
2015-04-26 11:09:00,50.4,28.8,29.94,North,350,14.1,14.1,43,0.00,,,0.00,772.0,meteobridge,2015-04-26 15:09:00,
2015-04-26 11:14:00,50.4,29.3,29.94,NNE,30,12.1,13.0,44,0.00,,,0.00,780.0,meteobridge,2015-04-26 15:14:00,
2015-04-26 11:19:00,50.5,28.9,29.94,NNW,347,4.0,8.0,43,0.00,,,0.00,789.0,meteobridge,2015-04-26 15:19:00,
2015-04-26 11:24:00,50.9,28.6,29.94,NNW,336,6.9,12.0,42,0.00,,,0.00,800.0,meteobridge,2015-04-26 15:24:00,
2015-04-26 11:29:00,50.7,29.1,29.94,NNE,17,8.1,11.0,43,0.00,,,0.00,805.0,meteobridge,2015-04-26 15:29:00,
2015-04-26 11:34:00,50.7,29.1,29.94,NNE,30,6.9,11.0,43,0.00,,,0.00,819.0,meteobridge,2015-04-26 15:34:00,
2015-04-26 11:39:00,50.7,28.4,29.94,NNE,17,8.1,12.0,42,0.00,,,0.00,823.0,meteobridge,2015-04-26 15:39:00,
2015-04-26 11:44:00,51.4,29.7,29.94,NNE,20,6.9,14.0,43,0.00,,,0.00,831.0,meteobridge,2015-04-26 15:44:00,
2015-04-26 11:49:00,51.3,28.4,29.94,NE,47,10.1,14.0,41,0.00,,,0.00,838.0,meteobridge,2015-04-26 15:49:00,
2015-04-26 11:54:00,51.1,28.8,29.94,North,355,6.0,10.0,42,0.00,,,0.00,847.0,meteobridge,2015-04-26 15:54:00,
2015-04-26 11:59:00,51.4,28.6,29.95,NE,45,8.1,13.0,41,0.00,,,0.00,853.0,meteobridge,2015-04-26 15:59:00,
2015-04-26 12:04:00,52.0,29.7,29.94,NNW,340,2.9,12.0,42,0.00,,,0.00,856.0,meteobridge,2015-04-26 16:04:00,
2015-04-26 12:09:00,52.3,28.8,29.94,NNE,18,8.1,15.0,40,0.00,,,0.00,861.0,meteobridge,2015-04-26 16:09:00,
2015-04-26 12:14:00,52.2,29.1,29.94,North,0,2.9,9.0,41,0.00,,,0.00,870.0,meteobridge,2015-04-26 16:14:00,
2015-04-26 12:19:00,52.3,29.3,29.94,North,350,4.9,13.0,41,0.00,,,0.00,877.0,meteobridge,2015-04-26 16:19:00,
2015-04-26 12:24:00,52.5,28.9,29.94,NNE,29,11.0,12.0,40,0.00,,,0.00,933.0,meteobridge,2015-04-26 16:24:00,
2015-04-26 12:29:00,52.5,30.0,29.94,North,351,6.0,13.0,42,0.00,,,0.00,925.0,meteobridge,2015-04-26 16:29:00,
2015-04-26 12:34:00,52.9,29.3,29.94,WNW,300,2.0,12.0,40,0.00,,,0.00,962.0,meteobridge,2015-04-26 16:34:00,
2015-04-26 12:39:00,53.1,29.3,29.94,NNE,28,11.0,15.0,40,0.00,,,0.00,274.0,meteobridge,2015-04-26 16:39:00,
2015-04-26 12:44:00,52.9,29.8,29.94,North,10,4.9,13.0,41,0.00,,,0.00,962.0,meteobridge,2015-04-26 16:44:00,
2015-04-26 12:49:00,52.9,29.8,29.93,North,355,8.1,14.0,41,0.00,,,0.00,1035.0,meteobridge,2015-04-26 16:49:00,
2015-04-26 12:54:00,53.1,30.6,29.93,North,351,8.1,15.0,42,0.00,,,0.00,986.0,meteobridge,2015-04-26 16:54:00,
2015-04-26 12:59:00,53.6,30.4,29.93,NNW,332,4.0,8.0,41,0.00,,,0.00,972.0,meteobridge,2015-04-26 16:59:00,